Location: Bellerive
(46.9237°N, 7.0223°E)
Time: 18:08:58
(UTC+00:00)

Cosmos 2058 Rocket - Pass Details

Date: 09 April 2020
Orbit: 610 x 640 km, 82.5° (Epoch: 26 May)

Event Time Altitude Azimuth Distance (km) Brightness Sun altitude
Rises 18:52:43 0° 168° (SSE) 2,932 6.2 -7.4°
Reaches altitude 10° 18:55:03 10° 161° (SSE) 2,028 5.3 -7.8°
Maximum altitude 18:59:15 40° 92° (E) 948 3.6 -8.4°
Drops below altitude 10° 19:03:28 10° 23° (NNE) 2,037 5.7 -9.1°
Sets 19:05:49 0° 16° (NNE) 2,947 6.6 -9.5°
